Weather History for Sauk Centre, MN

Change the Weather History Date:

Tuesday, February 26, 2013

  Actual Average (KGHW) Record (KGHW)
Temperature  
Mean Temperature 24 °F -  
Max Temperature 30 °F 33 °F 56 °F (1976)
Min Temperature 17 °F 14 °F -16 °F (1950)
Degree Days  
Heating Degree Days 42    
Moisture  
Dew Point 20 °F    
Average Humidity 91    
Maximum Humidity 100    
Minimum Humidity 75    
Precipitation  
Precipitation 0.00 in - - ()
Sea Level Pressure  
Sea Level Pressure 29.98 in    
Wind  
Wind Speed 2 mph (North)    
Max Wind Speed 8 mph    
Max Gust Speed -    
Visibility 4 miles    
Events Fog , Snow    
Averages and records for this station are not official NWS values.
T = Trace of Precipitation, MM = Missing Value Source: NWS Daily Summary

Daily Weather History Graph

Daily Weather History Graph

Search for Another Location

Airport:

Trip Planner

Search our weather history database for the weather conditions in past years. The results will help you decide how hot, cold, wet, or windy it might be!

Date:

Astronomy

Feb. 26, 2013 Rise Set
Actual Time 7:03 AM CST 6:02 PM CST
Civil Twilight 6:33 AM CST 6:32 PM CST
Nautical Twilight 5:58 AM CST 7:07 PM CST
Astronomical Twilight 5:24 AM CST 7:41 PM CST
Moon 7:27 PM CST (2/26) 7:00 AM CST (2/26)
Length of Visible Light 11h 59m
Length of Day
10h 59m
Full, 99% of the Moon is Illuminated
Feb 26
Full
Mar 4
Last Quarter
Mar 11
New
Mar 19
First Quarter
Mar 27
Full

Hourly Weather History & Observations

Time (CST) Temp. Windchill Dew Point Humidity Pressure Visibility Wind Dir Wind Speed Gust Speed Precip Events Conditions
12:15 AM 19.4 °F - 19.4 °F 100% 30.03 in 0.2 mi Calm Calm - N/A Fog Light Freezing Fog
12:35 AM 19.4 °F - 19.4 °F 100% 30.04 in 0.2 mi Calm Calm - N/A Fog Light Freezing Fog
12:55 AM 19.4 °F - 19.4 °F 100% 30.02 in 0.2 mi Calm Calm - N/A Fog Light Freezing Fog
1:15 AM 19.4 °F - 19.4 °F 100% 30.02 in 0.2 mi Calm Calm - N/A Fog Light Freezing Fog
1:35 AM 19.4 °F - 17.6 °F 93% 30.03 in 0.2 mi Calm Calm - N/A Fog Light Freezing Fog
1:55 AM 19.4 °F 12.8 °F 17.6 °F 93% 30.03 in 0.2 mi East 4.6 mph - N/A Fog Light Freezing Fog
2:15 AM 19.4 °F - 17.6 °F 93% 30.04 in 0.2 mi Calm Calm - N/A Fog Light Freezing Fog
2:35 AM 19.4 °F 14.3 °F 17.6 °F 93% 30.03 in 0.2 mi East 3.5 mph - N/A Fog Light Freezing Fog
2:55 AM 19.4 °F - 17.6 °F 93% 30.03 in 0.2 mi Calm Calm - N/A Fog Light Freezing Fog
3:15 AM 19.4 °F - 17.6 °F 93% 30.03 in 0.2 mi Calm Calm - N/A Fog Light Freezing Fog
3:35 AM 19.4 °F - 17.6 °F 93% 30.02 in 0.2 mi Calm Calm - N/A Fog Light Freezing Fog
3:55 AM 17.6 °F - 17.6 °F 100% 30.01 in 0.2 mi Calm Calm - N/A Fog Light Freezing Fog
4:15 AM 17.6 °F - 17.6 °F 100% 30.02 in 0.2 mi Calm Calm - N/A Fog Light Freezing Fog
4:35 AM 17.6 °F - 15.8 °F 93% 30.02 in 0.2 mi Calm Calm - N/A Fog Light Freezing Fog
4:55 AM 17.6 °F - 15.8 °F 93% 30.01 in 0.2 mi Calm Calm - N/A Fog Light Freezing Fog
5:15 AM 17.6 °F - 15.8 °F 93% 30.01 in 0.2 mi Calm Calm - N/A Fog Light Freezing Fog
5:35 AM 17.6 °F 12.3 °F 15.8 °F 93% 29.99 in 0.2 mi NNE 3.5 mph - N/A Snow Light Snow
5:55 AM 17.6 °F 12.3 °F 15.8 °F 93% 29.99 in 0.2 mi North 3.5 mph - N/A Fog Light Freezing Fog
6:15 AM 17.6 °F 12.3 °F 15.8 °F 93% 29.99 in 0.5 mi North 3.5 mph - N/A Fog Light Freezing Fog
6:35 AM 17.6 °F - 15.8 °F 93% 29.99 in 0.5 mi Calm Calm - N/A Fog Light Freezing Fog
6:55 AM 17.6 °F 10.7 °F 15.8 °F 93% 29.99 in 0.2 mi NNE 4.6 mph - N/A Fog Light Freezing Fog
7:15 AM 17.6 °F - 14.0 °F 86% 30.00 in 0.2 mi Calm Calm - N/A Fog Light Freezing Fog
7:35 AM 17.6 °F - 15.8 °F 93% 30.00 in 0.2 mi Calm Calm - N/A Fog Light Freezing Fog
7:55 AM 17.6 °F - 15.8 °F 93% 30.00 in 0.2 mi Calm Calm - N/A Fog Light Freezing Fog
8:15 AM 17.6 °F 12.3 °F 15.8 °F 93% 30.00 in 0.2 mi NNE 3.5 mph - N/A Fog Light Freezing Fog
8:35 AM 17.6 °F - 15.8 °F 93% 30.00 in 0.2 mi Calm Calm - N/A Fog Light Freezing Fog
9:15 AM 19.4 °F - 17.6 °F 93% 30.00 in 0.2 mi Calm Calm - N/A Fog Light Freezing Fog
9:35 AM 19.4 °F 14.3 °F 17.6 °F 93% 30.00 in 0.2 mi NE 3.5 mph - N/A Fog Light Freezing Fog
9:55 AM 19.4 °F 14.3 °F 19.4 °F 100% 30.00 in 0.2 mi NNE 3.5 mph - N/A Fog Light Freezing Fog
10:15 AM 21.2 °F 16.4 °F 21.2 °F 100% 30.01 in 0.8 mi NNE 3.5 mph - N/A   Overcast
10:35 AM 23.0 °F 18.4 °F 21.2 °F 93% 30.01 in 0.8 mi ENE 3.5 mph - N/A   Overcast
10:55 AM 23.0 °F 18.4 °F 21.2 °F 93% 30.01 in 0.8 mi East 3.5 mph - N/A   Overcast
11:15 AM 24.8 °F - 23.0 °F 93% 30.01 in 1.5 mi Calm Calm - N/A   Overcast
11:35 AM 24.8 °F 20.5 °F 24.8 °F 100% 30.01 in 2.5 mi East 3.5 mph - N/A   Overcast
11:55 AM 26.6 °F 22.6 °F 24.8 °F 93% 30.01 in 4.0 mi East 3.5 mph - N/A   Overcast
12:15 PM 26.6 °F 21.2 °F 26.6 °F 100% 30.01 in 4.0 mi East 4.6 mph - N/A   Overcast
12:35 PM 26.6 °F 22.6 °F 26.6 °F 100% 30.00 in 5.0 mi East 3.5 mph - N/A   Overcast
12:55 PM 26.6 °F 20.0 °F 26.6 °F 100% 29.99 in 7.0 mi ENE 5.8 mph - N/A   Overcast
1:15 PM 26.6 °F 18.2 °F 26.6 °F 100% 29.98 in 7.0 mi ENE 8.1 mph - N/A   Overcast
1:35 PM 26.6 °F 19.1 °F 26.6 °F 100% 29.97 in 7.0 mi East 6.9 mph - N/A   Overcast
1:55 PM 26.6 °F 19.1 °F 26.6 °F 100% 29.97 in 7.0 mi NE 6.9 mph - N/A   Overcast
2:15 PM 28.4 °F 20.4 °F 26.6 °F 93% 29.96 in 7.0 mi NE 8.1 mph - N/A   Overcast
2:35 PM 28.4 °F 23.3 °F 24.8 °F 86% 29.96 in 7.0 mi NNE 4.6 mph - N/A   Overcast
2:55 PM 28.4 °F 21.2 °F 23.0 °F 80% 29.96 in 10.0 mi NE 6.9 mph - N/A   Overcast
3:15 PM 28.4 °F 23.3 °F 23.0 °F 80% 29.96 in 7.0 mi NE 4.6 mph - N/A   Mostly Cloudy
3:35 PM 28.4 °F 23.3 °F 23.0 °F 80% 29.95 in 10.0 mi North 4.6 mph - N/A   Scattered Clouds
3:55 PM 30.2 °F 26.7 °F 23.0 °F 75% 29.94 in 7.0 mi North 3.5 mph - N/A   Clear
4:15 PM 28.4 °F 23.3 °F 23.0 °F 80% 29.95 in 7.0 mi West 4.6 mph - N/A   Clear
4:35 PM 28.4 °F 24.6 °F 23.0 °F 80% 29.94 in 7.0 mi WNW 3.5 mph - N/A   Clear
4:55 PM 28.4 °F 21.2 °F 23.0 °F 80% 29.94 in 7.0 mi NW 6.9 mph - N/A   Clear
5:15 PM 26.6 °F 22.6 °F 23.0 °F 86% 29.94 in 5.0 mi West 3.5 mph - N/A   Clear
5:35 PM 24.8 °F 19.1 °F 21.2 °F 86% 29.93 in 5.0 mi WNW 4.6 mph - N/A   Clear
5:55 PM 23.0 °F 17.0 °F 19.4 °F 86% 29.94 in 5.0 mi NW 4.6 mph - N/A   Clear
6:15 PM 21.2 °F 16.4 °F 17.6 °F 86% 29.94 in 5.0 mi WNW 3.5 mph - N/A   Clear
6:35 PM 21.2 °F 13.6 °F 17.6 °F 86% 29.94 in 7.0 mi NW 5.8 mph - N/A   Clear
6:55 PM 23.0 °F 15.8 °F 19.4 °F 86% 29.94 in 7.0 mi NW 5.8 mph - N/A   Clear
7:15 PM 23.0 °F 15.8 °F 19.4 °F 86% 29.95 in 10.0 mi NNW 5.8 mph - N/A   Clear
7:35 PM 24.8 °F 16.9 °F 19.4 °F 80% 29.94 in 10.0 mi NNW 6.9 mph - N/A   Clear
7:55 PM 23.0 °F 15.8 °F 19.4 °F 86% 29.94 in 10.0 mi NNW 5.8 mph - N/A   Clear
8:15 PM 23.0 °F 15.8 °F 19.4 °F 86% 29.95 in 10.0 mi NNW 5.8 mph - N/A   Clear
8:35 PM 23.0 °F 14.7 °F 19.4 °F 86% 29.95 in 10.0 mi NNW 6.9 mph - N/A   Clear
8:55 PM 23.0 °F 15.8 °F 19.4 °F 86% 29.95 in 10.0 mi NNW 5.8 mph - N/A   Clear
9:15 PM 21.2 °F 14.9 °F 17.6 °F 86% 29.96 in 10.0 mi NNW 4.6 mph - N/A   Clear
9:35 PM 23.0 °F 17.0 °F 19.4 °F 86% 29.95 in 10.0 mi North 4.6 mph - N/A   Clear
9:55 PM 21.2 °F 12.6 °F 17.6 °F 86% 29.95 in 10.0 mi NNW 6.9 mph - N/A   Clear
10:15 PM 23.0 °F 14.7 °F 19.4 °F 86% 29.95 in 10.0 mi North 6.9 mph - N/A   Clear
10:35 PM 23.0 °F 15.8 °F 19.4 °F 86% 29.95 in 10.0 mi North 5.8 mph - N/A   Clear
10:55 PM 21.2 °F 13.6 °F 17.6 °F 86% 29.96 in 10.0 mi NNW 5.8 mph - N/A   Clear
11:15 PM 23.0 °F 15.8 °F 19.4 °F 86% 29.95 in 10.0 mi NNW 5.8 mph - N/A   Clear
11:35 PM 21.2 °F 12.6 °F 17.6 °F 86% 29.96 in 10.0 mi NNW 6.9 mph - N/A   Clear
11:55 PM 21.2 °F 12.6 °F 17.6 °F 86% 29.95 in 10.0 mi NNW 6.9 mph - N/A   Clear